Location: Most
(50.5133°N, 13.6207°E)
Time: 20:00:42
(UTC+02:00)

ISS - Pass Details

Date: 03 October 2021
Orbit: 418 x 423 km, 51.6° (Epoch: 18 October)

Event Time Altitude Azimuth Distance (km) Brightness Sun altitude
Rises 20:18:25 0° 284° (WNW) 2,366 1.9 -16.5°
Reaches altitude 10° 20:20:49 10° 269° (W) 1,500 0.2 -16.9°
Maximum altitude 20:23:29 22° 216° (SW) 969 -1.7 -17.3°
Enters shadow 20:25:04 16° 179° (S) 1,182 -1.7 -17.6°
